Location: Ca�n Batista
(41.4099°N, 1.7752°E)
Time: 13:10:49
(UTC+00:00)

Cosmos 2084 Rocket - Pass Details

Date: 03 March 2021
Orbit: 527 x 653 km, 62.8° (Epoch: 21 April)

Event Time Altitude Azimuth Distance (km) Brightness Sun altitude
Rises 18:23:59 0° 330° (NNW) 2,808 7.4 -7.9°
Reaches altitude 10° 18:26:18 10° 338° (NNW) 1,927 6.4 -8.3°
Maximum altitude 18:30:25 40° 48° (NE) 907 4.1 -9.1°
Drops below altitude 10° 18:34:40 10° 118° (ESE) 1,990 5.6 -9.9°
Enters shadow 18:34:46 10° 119° (ESE) 2,028 5.7 -9.9°
